Location: Unspecified
(0.0000°N, 0.0000°E)
Time: 16:36:18
(UTC+00:00)

SKYMED 2 - Visible Passes

Search period start: 30 March 2017 00:00
Search period end: 09 April 2017 00:00
Orbit: 621 x 623 km, 97.9° (Epoch: 28 March)

Date Brightness Start Highest point End Pass type
(mag) Time Alt. Az. Time Alt. Az. Time Alt. Az.
30 Mar 5.5 05:13:23 10° SE 05:17:19 34° ENE 05:21:15 10° NNE visible
31 Mar 4.1 05:30:59 10° SSE 05:35:17 64° E 05:39:35 10° N visible
03 Apr 6.8 04:50:40 10° ESE 04:53:19 16° ENE 04:55:58 10° NE visible
03 Apr 6.9 18:35:33 10° NW 18:38:08 16° WNW 18:40:44 10° WSW visible
04 Apr 5.9 05:07:34 10° SE 05:11:18 28° ENE 05:15:00 10° NNE visible
05 Apr 4.6 05:25:03 10° SSE 05:29:16 51° ENE 05:33:28 10° N visible
08 Apr 7.0 04:45:16 10° ESE 04:47:18 13° ENE 04:49:19 10° NE visible
08 Apr 6.8 18:29:03 10° NNW 18:32:06 19° WNW 18:35:10 10° WSW visible
